This demonstration page uses our WeatherBlox Daily Observations layout. Learn more.

Left ArrowRight Arrow

Hourly Observations for March 5, 2021

Temp ( °F °C ) Dew Point ( °F °C ) Humidity (%) Winds ( mph kmh ) Pressure ( in mb ) Visibility ( mi km ) Precip ( " mm )
12:15 am 00:15 Clear 43 6.2 35 1.6 73 73 N N/A 30.17 1022 10 16 N/A
12:35 am 00:35 Clear 42 5.8 35 1.6 75 75 N N/A 30.17 1022 10 16 N/A
12:55 am 00:55 Clear 42 5.3 35 1.7 78 78 NE 5 7 30.19 1022 10 16 N/A
1:15 am 01:15 Clear 42 5.5 36 2.1 79 79 NE 7 11 30.18 1022 10 16 N/A
1:35 am 01:35 Clear 41 5 36 2 81 81 NE 8 13 30.19 1022 10 16 N/A
1:55 am 01:55 Clear 41 4.9 36 2 82 82 NE 8 13 30.19 1022 10 16 N/A
2:15 am 02:15 Clear 40 4.4 35 1.7 83 83 NE 7 11 30.20 1023 10 16 N/A
2:35 am 02:35 Clear 39 4 35 1.7 85 85 NE 8 13 30.21 1023 10 16 N/A
2:55 am 02:55 Clear 38 3.5 35 1.4 86 86 NNE 7 11 30.21 1023 10 16 N/A
3:15 am 03:15 Clear 38 3.2 34 1.3 88 88 NNE 6 9 30.21 1023 10 16 N/A
3:35 am 03:35 Clear 37 2.5 33 0.8 89 89 NNE 8 13 30.23 1024 10 16 N/A
3:55 am 03:55 Clear 37 2.6 34 1.1 90 90 NNE 6 9 30.24 1024 10 16 N/A
4:15 am 04:15 Clear 37 2.6 34 1.2 91 91 NNE 5 7 30.24 1024 10 16 N/A
4:35 am 04:35 Clear 37 3 35 1.4 89 89 N 7 11 30.25 1024 10 16 N/A
4:55 am 04:55 Clear 36 2.2 33 0.8 91 91 NNE 7 11 30.27 1025 10 16 N/A
5:15 am 05:15 Clear 35 1.8 33 0.5 91 91 NNE 5 7 30.28 1025 10 16 N/A
5:35 am 05:35 Clear 35 1.8 33 0.6 92 92 N 5 7 30.28 1025 10 16 N/A
5:55 am 05:55 Clear 35 1.6 33 0.5 93 93 N 6 9 30.29 1026 10 16 N/A
6:15 am 06:15 Clear 34 0.9 32 undefined 94 94 N 3 6 30.31 1026 7 11 N/A
6:35 am 06:35 Clear 32 undefined 31 -0.7 95 95 N 6 9 30.33 1027 7 11 N/A
6:55 am 06:55 Clear with Mist and Fog 32 -0.1 31 -0.7 96 96 N 6 9 30.33 1027 5 8 N/A
7:15 am 07:15 Sunny with Mist and Fog 32 -0.1 31 -0.7 96 96 NNE 7 11 30.33 1027 4 6 N/A
7:35 am 07:35 Sunny with Mist and Fog 32 -0.2 31 -0.8 96 96 N 6 9 30.35 1028 3 5 N/A
7:55 am 07:55 Sunny with Mist and Fog 32 0.1 32 -0.2 98 98 N 6 9 30.35 1028 3 5 N/A
8:15 am 08:15 Sunny with Mist and Fog 34 1.2 33 0.6 96 96 N 6 9 30.35 1028 4 6 N/A
8:35 am 08:35 Sunny with Mist and Fog 36 2.1 35 1.4 95 95 NNE 7 11 30.35 1028 4 6 N/A
8:55 am 08:55 Partly Cloudy with Mist and Fog 37 2.9 35 1.9 93 93 NNE 7 11 30.35 1028 5 8 N/A
9:15 am 09:15 Partly Cloudy with Mist and Fog 38 3.5 36 2 90 90 NNE 6 9 30.34 1028 5 8 N/A
9:35 am 09:35 Sunny 40 4.4 36 2.3 86 86 NE 3 6 30.34 1028 7 11 N/A
9:55 am 09:55 Sunny 41 5.1 37 2.6 84 84 ENE 3 6 30.34 1027 7 11 N/A
10:15 am 10:15 Sunny 43 6.1 37 2.6 79 79 NE 5 7 30.33 1027 10 16 N/A
10:35 am 10:35 Sunny 45 7.1 37 2.6 73 73 NE 3 6 30.32 1027 10 16 N/A
10:55 am 10:55 Sunny 47 8.2 37 2.9 70 70 NNE 3 6 30.31 1026 10 16 N/A
11:15 am 11:15 Sunny 48 9 37 2.5 64 64 N 5 7 30.30 1026 10 16 N/A
11:35 am 11:35 Sunny 50 9.8 37 2.6 61 61 N 3 6 30.28 1026 10 16 N/A
12:15 pm 12:15 Sunny 53 11.5 37 2.9 56 56 N 6 9 30.27 1025 10 16 N/A
12:35 pm 12:35 Sunny 55 12.6 37 2.7 51 51 NNE 5 7 30.26 1025 10 16 N/A
12:55 pm 12:55 Sunny 56 13.3 37 2.9 50 50 NNE 6 9 30.24 1024 10 16 N/A
1:15 pm 13:15 Sunny 57 13.7 37 2.9 48 48 NE 3 6 30.24 1024 10 16 N/A
1:35 pm 13:35 Sunny 58 14.7 36 2 43 43 E 8 13 30.22 1023 10 16 N/A
1:55 pm 13:55 Sunny 59 15.1 36 2.1 42 42 NE 6 9 30.21 1023 10 16 N/A
2:15 pm 14:15 Sunny 60 15.3 34 1.1 38 38 E 3 6 30.20 1023 10 16 N/A
2:35 pm 14:35 Sunny 60 15.7 35 1.5 38 38 SE 5 7 30.19 1022 10 16 N/A
2:55 pm 14:55 Sunny 60 15.8 34 1 37 37 S 3 6 30.18 1022 10 16 N/A
3:15 pm 15:15 Sunny 61 16 34 0.9 36 36 ESE 5 7 30.18 1022 10 16 N/A
3:35 pm 15:35 Sunny 61 16.2 33 0.5 35 35 N N/A 30.18 1022 10 16 N/A
3:55 pm 15:55 Sunny 61 16.3 33 0.6 35 35 N N/A 30.18 1022 10 16 N/A
4:15 pm 16:15 Sunny 62 16.6 32 0.2 33 33 N N/A 30.18 1022 10 16 N/A
4:35 pm 16:35 Sunny 61 16.2 32 0.1 34 34 N N/A 30.18 1022 10 16 N/A
4:55 pm 16:55 Sunny 61 16.3 33 0.3 34 34 E 3 6 30.18 1022 10 16 N/A
5:15 pm 17:15 Sunny 61 16.1 32 undefined 34 34 N N/A 30.18 1022 10 16 N/A
5:35 pm 17:35 Sunny 61 15.9 32 undefined 34 34 N N/A 30.18 1022 10 16 N/A
5:55 pm 17:55 Sunny 59 15 35 1.4 40 40 ESE 5 7 30.19 1022 10 16 N/A
6:15 pm 18:15 Sunny 55 12.8 37 2.8 51 51 ESE 6 9 30.21 1023 10 16 N/A
6:35 pm 18:35 Clear 50 10 38 3.2 63 63 ESE 6 9 30.23 1024 10 16 N/A
6:55 pm 18:55 Clear 49 9.2 36 2.4 63 63 ESE 7 11 30.24 1024 10 16 N/A
7:15 pm 19:15 Clear 48 8.7 36 2.4 65 65 SE 7 11 30.24 1024 10 16 N/A
7:35 pm 19:35 Clear 46 7.6 35 1.6 66 66 SE 8 13 30.25 1025 10 16 N/A
7:55 pm 19:55 Clear 43 6.3 35 1.5 72 72 SE 8 13 30.27 1025 10 16 N/A
8:15 pm 20:15 Clear 42 5.3 34 1.1 75 75 SE 8 13 30.28 1025 10 16 N/A
8:35 pm 20:35 Clear 43 6.2 34 1.1 70 70 SE 8 13 30.27 1025 10 16 N/A
8:55 pm 20:55 Clear 43 6.3 34 1.2 70 70 SE 8 13 30.28 1025 10 16 N/A
9:15 pm 21:15 Clear 43 6 34 1.2 72 72 SE 9 15 30.27 1025 10 16 N/A
9:35 pm 21:35 Clear 43 6.3 34 1.2 70 70 SSE 7 11 30.28 1025 10 16 N/A
9:55 pm 21:55 Clear 43 5.9 34 1.1 72 72 SSE 8 13 30.28 1025 10 16 N/A
10:15 pm 22:15 Clear 42 5.5 34 0.9 73 73 SSE 7 11 30.28 1026 10 16 N/A
10:35 pm 22:35 Clear 41 5 33 0.5 73 73 S 6 9 30.29 1026 10 16 N/A
10:55 pm 22:55 Clear 41 5 33 0.6 73 73 SSE 5 7 30.29 1026 10 16 N/A
11:15 pm 23:15 Clear 40 4.5 33 0.5 76 76 SSE 6 9 30.28 1025 10 16 N/A
11:35 pm 23:35 Clear 41 4.8 33 0.5 74 74 S 6 9 30.28 1025 10 16 N/A
11:55 pm 23:55 Clear 39 4 32 0.2 77 77 S 6 9 30.29 1026 10 16 N/A

Powered by AerisWeather